CW5622 Weather Reports


Display with metric or nautical units.
time (UTC)temp
F
wind
direction
speed
MPH
gust
MPH
rain 1hr
in
rain 24hr
in
rain mn
in
humidity
%
barometer
mb
20180722031636 68 109 0.0 0.0 0.00 0.00 0.00 84 1016.2
20180722030635 68 133 0.0 0.0 0.00 0.00 0.00 82 1016.0
20180722025635 68 11 0.0 0.0 0.00 0.00 0.00 82 1016.3
20180722024635 68 10 0.0 0.0 0.00 0.00 0.00 82 1016.3
20180722023635 68 108 0.0 0.0 0.00 0.00 0.00 84 1016.4
20180722022635 68 55 0.0 0.0 0.00 0.00 0.00 83 1016.4
20180722021636 68 54 0.0 0.0 0.00 0.00 0.00 83 1016.4
20180722020636 68 89 1.0 0.0 0.00 0.00 0.00 82 1016.5
20180722015635 68 88 0.0 0.0 0.00 0.00 0.00 81 1016.6
20180722014635 69 86 0.0 0.0 0.00 0.00 0.00 80 1016.6
20180722013635 69 86 0.0 0.0 0.00 0.00 0.00 79 1016.6
20180722012635 70 76 0.0 0.0 0.00 0.00 0.00 77 1016.6
20180722011635 70 78 0.0 0.0 0.00 0.00 0.00 76 1016.6
20180722010636 71 61 0.0 0.0 0.00 0.00 0.00 74 1016.5
20180722005635 72 94 0.0 0.0 0.00 0.00 0.00 71 1016.4
20180722004637 72 94 0.0 0.0 0.00 0.00 0.00 69 1016.4
20180722003635 72 150 0.0 0.0 0.00 0.00 0.00 66 1016.4
20180722002636 73 150 1.0 0.0 0.00 0.00 0.00 66 1016.4
20180722001635 73 110 0.0 0.0 0.00 0.00 0.00 65 1016.4
20180722000637 73 95 1.0 0.0 0.00 0.00 0.00 65 1016.5
20180721235639 74 148 2.0 0.0 0.00 0.00 0.00 64 1016.5
20180721234635 74 99 0.0 0.0 0.00 0.00 0.00 63 1016.5
20180721233635 74 142 2.0 0.0 0.00 0.00 0.00 63 1016.6
20180721232636 75 134 0.0 0.0 0.00 0.00 0.00 63 1016.5
20180721231639 75 133 0.0 0.0 0.00 0.00 0.00 62 1016.5
20180721230636 75 87 2.0 0.0 0.00 0.00 0.00 62 1016.5
20180721225635 75 101 0.0 0.0 0.00 0.00 0.00 60 1016.3
20180721224639 76 111 1.0 0.0 0.00 0.00 0.00 61 1016.3
20180721223636 76 146 1.0 0.0 0.00 0.00 0.00 59 1016.1
20180721222635 76 111 1.0 0.0 0.00 0.00 0.00 58 1016.1
20180721221635 77 96 1.0 0.0 0.00 0.00 0.00 57 1016.1
20180721220636 77 146 0.0 0.0 0.00 0.00 0.00 59 1016.1
20180721215635 77 90 1.0 0.0 0.00 0.00 0.00 56 1016.0
20180721214635 78 96 4.0 0.0 0.00 0.00 0.00 57 1016.0
20180721213635 78 115 1.0 0.0 0.00 0.00 0.00 58 1016.1
20180721212637 78 93 0.0 0.0 0.00 0.00 0.00 54 1016.1
20180721211636 78 99 1.0 0.0 0.00 0.00 0.00 54 1016.1
20180721210635 79 123 1.0 0.0 0.00 0.00 0.00 53 1016.1
20180721205636 79 136 1.0 0.0 0.00 0.00 0.00 54 1016.1
20180721204635 79 98 1.0 0.0 0.00 0.00 0.00 53 1016.1
20180721203635 80 109 3.0 0.0 0.00 0.00 0.00 52 1016.3
20180721202639 80 109 2.0 0.0 0.00 0.00 0.00 51 1016.4
20180721201637 80 141 1.0 0.0 0.00 0.00 0.00 50 1016.4
20180721200636 80 136 1.0 0.0 0.00 0.00 0.00 53 1016.3
20180721195636 81 109 0.0 0.0 0.00 0.00 0.00 51 1016.3
20180721194636 80 117 1.0 0.0 0.00 0.00 0.00 51 1016.3
20180721193636 81 116 1.0 0.0 0.00 0.00 0.00 50 1016.4
20180721192636 81 150 4.0 0.0 0.00 0.00 0.00 51 1016.5
20180721191636 81 148 0.0 0.0 0.00 0.00 0.00 53 1016.5
20180721190636 80 148 2.0 0.0 0.00 0.00 0.00 50 1016.7
20180721185636 80 88 2.0 0.0 0.00 0.00 0.00 49 1016.9
20180721184636 81 97 1.0 0.0 0.00 0.00 0.00 48 1016.9
20180721183636 82 132 0.0 0.0 0.00 0.00 0.00 44 1017.0
20180721182636 83 82 0.0 0.0 0.00 0.00 0.00 46 1017.1
20180721181636 82 138 2.0 0.0 0.00 0.00 0.00 48 1017.1
20180721180637 81 130 2.0 0.0 0.00 0.00 0.00 49 1017.4
20180721175636 81 132 1.0 0.0 0.00 0.00 0.00 45 1017.5
20180721174636 81 155 1.0 0.0 0.00 0.00 0.00 47 1017.5
20180721173638 81 77 0.0 0.0 0.00 0.00 0.00 47 1017.7
20180721172636 80 98 0.0 0.0 0.00 0.00 0.00 49 1017.9
20180721171636 80 98 0.0 0.0 0.00 0.00 0.00 48 1017.9
20180721170637 80 163 2.0 0.0 0.00 0.00 0.00 49 1018.2
20180721165636 80 130 2.0 0.0 0.00 0.00 0.00 47 1018.4
20180721164636 80 113 2.0 0.0 0.00 0.00 0.00 47 1018.4
20180721163636 80 119 1.0 0.0 0.00 0.00 0.00 50 1018.6
20180721162636 80 158 1.0 0.0 0.00 0.00 0.00 48 1018.7
20180721161638 79 192 1.0 0.0 0.00 0.00 0.00 51 1018.7
20180721160636 78 182 2.0 0.0 0.00 0.00 0.00 54 1018.9
20180721155636 79 157 3.0 0.0 0.00 0.00 0.00 50 1018.8
20180721154636 79 167 1.0 0.0 0.00 0.00 0.00 58 1018.8
20180721153637 78 119 0.0 0.0 0.00 0.00 0.00 47 1018.9
20180721152638 78 135 1.0 0.0 0.00 0.00 0.00 49 1019.1
20180721151636 78 98 1.0 0.0 0.00 0.00 0.00 45 1019.1
20180721150637 78 133 0.0 0.0 0.00 0.00 0.00 50 1019.1
20180721145636 78 139 1.0 0.0 0.00 0.00 0.00 54 1019.0
20180721144636 78 139 1.0 0.0 0.00 0.00 0.00 54 1019.0
20180721143636 77 140 3.0 0.0 0.00 0.00 0.00 61 1019.0
20180721142637 77 119 0.0 0.0 0.00 0.00 0.00 57 1019.0
20180721141636 76 118 0.0 0.0 0.00 0.00 0.00 63 1019.0
20180721140636 76 145 0.0 0.0 0.00 0.00 0.00 62 1019.1
20180721135636 75 32 0.0 0.0 0.00 0.00 0.00 63 1019.0
20180721134637 76 28 1.0 0.0 0.00 0.00 0.00 68 1019.0
20180721133637 75 10 0.0 0.0 0.00 0.00 0.00 68 1018.9
20180721132637 74 49 0.0 0.0 0.00 0.00 0.00 75 1019.1
20180721131636 73 40 0.0 0.0 0.00 0.00 0.00 77 1019.1
20180721130636 72 173 0.0 0.0 0.00 0.00 0.00 82 1019.2
20180721125637 71 183 0.0 0.0 0.00 0.00 0.00 84 1019.5
20180721124637 70 186 0.0 0.0 0.00 0.00 0.00 85 1019.5
20180721123638 69 186 0.0 0.0 0.00 0.00 0.00 89 1019.3
20180721122638 67 186 0.0 0.0 0.00 0.00 0.00 100 1019.2
20180721121638 66 186 0.0 0.0 0.00 0.00 0.00 100 1019.2
20180721120637 65 186 1.0 0.0 0.00 0.00 0.00 100 1019.1
20180721115637 64 186 1.0 0.0 0.00 0.00 0.00 100 1019.1
20180721114637 63 186 0.0 0.0 0.00 0.00 0.00 100 1019.1
20180721113637 63 186 0.0 0.0 0.00 0.00 0.00 100 1019.1
20180721112636 62 186 0.0 0.0 0.00 0.00 0.00 100 1019.1
20180721111637 62 186 0.0 0.0 0.00 0.00 0.00 100 1019.1
20180721110636 61 186 0.0 0.0 0.00 0.00 0.00 100 1018.8
20180721105637 60 186 1.0 0.0 0.00 0.00 0.00 100 1018.8
20180721104636 60 186 0.0 0.0 0.00 0.00 0.00 100 1018.8
20180721103637 59 186 0.0 0.0 0.00 0.00 0.00 100 1019.1
20180721102638 59 186 0.0 0.0 0.00 0.00 0.00 100 1019.1
20180721101637 59 186 0.0 0.0 0.00 0.00 0.00 100 1019.1
20180721100636 58 186 0.0 0.0 0.00 0.00 0.00 100 1019.2
20180721095637 58 186 1.0 0.0 0.00 0.00 0.00 100 1019.1
20180721094636 58 186 0.0 0.0 0.00 0.00 0.00 100 1019.1
20180721093636 57 186 0.0 0.0 0.00 0.00 0.00 100 1019.2
20180721092640 57 186 0.0 0.0 0.00 0.00 0.00 100 1018.9
20180721091645 57 186 0.0 0.0 0.00 0.00 0.00 100 1018.9
20180721090638 57 186 0.0 0.0 0.00 0.00 0.00 100 1018.9
20180721085638 57 186 0.0 0.0 0.00 0.00 0.00 100 1018.8
20180721084636 57 186 0.0 0.0 0.00 0.00 0.00 100 1018.8
20180721083637 57 186 1.0 0.0 0.00 0.00 0.00 100 1018.6
20180721082637 57 186 0.0 0.0 0.00 0.00 0.00 100 1018.6
20180721081637 58 186 0.0 0.0 0.00 0.00 0.00 100 1018.6
20180721080637 58 186 0.0 0.0 0.00 0.00 0.00 100 1018.5
20180721075637 58 186 0.0 0.0 0.00 0.00 0.00 100 1018.6
20180721074637 58 186 0.0 0.0 0.00 0.00 0.00 100 1018.6
20180721073637 58 186 0.0 0.0 0.00 0.00 0.00 100 1018.5
20180721072637 59 186 0.0 0.0 0.00 0.00 0.00 100 1018.6
20180721071637 59 186 0.0 0.0 0.00 0.00 0.00 100 1018.6
20180721070640 59 186 0.0 0.0 0.00 0.00 0.00 100 1018.6
20180721065637 59 186 0.0 0.0 0.00 0.00 0.00 100 1018.7
20180721064638 60 186 0.0 0.0 0.00 0.00 0.00 100 1018.7
20180721063637 60 186 0.0 0.0 0.00 0.00 0.00 100 1018.6
20180721062637 60 186 0.0 0.0 0.00 0.00 0.00 100 1018.5
20180721061637 60 186 0.0 0.0 0.00 0.00 0.00 99 1018.5
20180721060640 61 186 0.0 0.0 0.00 0.00 0.00 98 1018.5
20180721055637 61 186 0.0 0.0 0.00 0.00 0.00 97 1018.5
20180721054638 62 186 0.0 0.0 0.00 0.00 0.00 96 1018.5
20180721053638 63 186 0.0 0.0 0.00 0.00 0.00 94 1018.5
20180721052637 63 186 0.0 0.0 0.00 0.00 0.00 93 1018.5
20180721051638 64 186 0.0 0.0 0.00 0.00 0.00 93 1018.5
20180721050637 64 186 0.0 0.0 0.00 0.00 0.00 91 1018.6
20180721045638 64 186 0.0 0.0 0.00 0.00 0.00 91 1018.7
20180721044637 64 186 0.0 0.0 0.00 0.00 0.00 89 1018.7
20180721043639 65 186 1.0 0.0 0.00 0.00 0.00 88 1018.7
20180721042638 65 178 0.0 0.0 0.00 0.00 0.00 87 1018.6
20180721041639 66 179 0.0 0.0 0.00 0.00 0.00 85 1018.6
20180721040637 66 178 0.0 0.0 0.00 0.00 0.00 84 1018.7
20180721035637 66 178 0.0 0.0 0.00 0.00 0.00 84 1018.8
20180721034637 66 179 0.0 0.0 0.00 0.00 0.00 82 1018.8
20180721033638 67 179 0.0 0.0 0.00 0.00 0.00 80 1019.0
20180721032639 67 179 0.0 0.0 0.00 0.00 0.00 79 1018.9